Location: Il Ritiro
(43.4167°N, 13.1333°E)
Time: 01:35:18
(UTC+00:00)

Cosmos 1626 Rocket - Pass Details

Date: 05 July 2020
Orbit: 602 x 632 km, 82.5° (Epoch: 11 August)

Event Time Altitude Azimuth Distance (km) Brightness Sun altitude
Rises 19:31:16 0° 190° (S) 2,898 6.7 -6.7°
Reaches altitude 10° 19:33:29 10° 192° (SSW) 1,999 5.9 -7.0°
Maximum altitude 19:37:56 78° 279° (W) 649 3.8 -7.6°
Drops below altitude 10° 19:42:25 10° 6° (N) 2,023 6.7 -8.2°
Sets 19:44:41 0° 8° (N) 2,936 7.6 -8.5°
